Showing default

LEMUR 2 LEIA-PHILIP, 63246

Orbit data source: Space-Track

LEMUR 2 LEIA-PHILIP, 63246 is a payload satellite owned by Spire (US) in SSO that was launched on Sat, 15 Mar 2025 UTC via an FALCON 9 launch vehicle from the Air Force Western Test Range (AFWTR). Payload-class satellites include a variety of spacecraft equipped with specific instruments for various scientific and technological missions. These include communications satellites like Starlink; space stations such as the ISS; scientific satellites like the Hubble; Earth observation satellites from companies like Planet Labs, Umbra, and HawkEye 360; GPS; miniature CubeSats for education and research; and military/defense satellites.

Loading next visibility...
Identifier
63246, 2025-052AN
Orbit
SSO
Country
Flag of USUS
Related business
Manufacturer
Spire/Glasgow
Mission
Operational Commercial Com/MetRO
Bus & Motor
CUBESAT 6U, Unknown motor
Mass
10 kg wet, 10 kg dry
Launch date (UTC)
2025-03-15 (1 year ago)
Launch vehicle
FALCON 9
Launch site
Air Force Western Test Range (AFWTR)
Object type
Payload
Rocket body
Debris
Shape & HBR
Box, 0.2 m
Radar Cross Section
0.080 m², Medium (>0.1 m² and < 1m²)

Expand to show TLE details & history
Last TLE update: 13 hours ago

TLE from 13 hours ago
0 LEMUR 2 LEIA-PHILIP
1 63246U 25052AN  26174.95291441  .00000776  00000-0  71815-4 0  9996
2 63246  97.6825  66.7900 0003350 188.0089 172.1080 14.97328919 69684
Epoch: 2026-06-23T22:52Z
TLE epoch observation values (Epoch: 2026-06-23T22:52:11.805Z)
Latitude
-0°
Longitude
171.62372°
Altitude
580.513 km
Speed
7.569 km/s
True Right ascension
04h 27m 09s
True Declination
0° 00' 00"
Sunlit
Object was in daylight at epoch
Visualization orbit readout
Latitude
Unknown
Longitude
Unknown
Altitude
Unknown
Speed
Unknown
Apparent Right ascension
Unknown
Apparent Declination
Unknown
Sunlit
N/A
Visualization observer readout
Local Sidereal Time
23:28:21
Azimuth
Unknown
Elevation
Unknown
Doppler factor
Unknown
Orbital elements
Apogee altitude
574.49 km
Perigee altitude
569.833 km
Semi-major axis
6,950.298 km
Eccentricity
0.00034
Inclination
97.6825°
RAAN
66.79°
Arg. of periapsis
188.0089°
True anomaly
172.11327°
Mean anomaly
172.108°
Eccentric anomaly
172.11063°
Mean motion
3.74574 °/min
Orbital period
96.11 mins
BSTAR
0.000071815
Loading maneuver chart data...
Computing Atmospheric mass density...
Loading historical data...
Loading historical data...
Loading historical data...
Loading historical data...
Loading historical data...
Loading historical data...
Loading historical data...

Documentation

Showing up to 5 results
|